TimeEST,TemperatureF,Dew PointF,Humidity,Sea Level PressureIn,VisibilityMPH,Wind Direction,Wind SpeedMPH,Gust SpeedMPH,PrecipitationIn,Events,Conditions,WindDirDegrees,DateUTC
12:53 AM,-2.9,-11.9,65,30.14,10.0,NW,6.9,-,N/A,,Partly Cloudy,320,2013-01-23 05:53:00
1:53 AM,-2.9,-16.1,54,30.16,10.0,NW,4.6,-,N/A,,Clear,320,2013-01-23 06:53:00
2:53 AM,-5.1,-17.0,57,30.17,10.0,NNW,8.1,-,N/A,,Mostly Cloudy,340,2013-01-23 07:53:00
3:53 AM,-6.0,-18.9,54,30.18,10.0,NW,11.5,-,N/A,,Overcast,320,2013-01-23 08:53:00
4:53 AM,-7.1,-20.0,53,30.19,10.0,Variable,5.8,-,N/A,,Partly Cloudy,0,2013-01-23 09:53:00
5:53 AM,-9.0,-20.9,56,30.20,10.0,NW,5.8,-,N/A,,Clear,320,2013-01-23 10:53:00
6:53 AM,-11.0,-20.9,62,30.21,10.0,Calm,Calm,-,N/A,,Clear,0,2013-01-23 11:53:00
7:53 AM,-9.0,-20.9,56,30.23,10.0,Calm,Calm,-,N/A,,Clear,0,2013-01-23 12:53:00
8:53 AM,-8.0,-20.9,53,30.24,10.0,Variable,4.6,-,N/A,,Clear,0,2013-01-23 13:53:00
9:53 AM,-6.0,-20.9,49,30.25,10.0,Calm,Calm,-,N/A,,Clear,0,2013-01-23 14:53:00
10:53 AM,-4.0,-20.0,46,30.25,10.0,Calm,Calm,-,N/A,,Clear,0,2013-01-23 15:53:00
11:53 AM,-2.9,-18.9,46,30.22,10.0,NE,3.5,-,0.00,,Clear,40,2013-01-23 16:53:00
12:53 PM,-2.0,-11.9,63,30.19,10.0,East,9.2,-,0.00,,Clear,90,2013-01-23 17:53:00
1:53 PM,-0.9,-11.9,60,30.19,10.0,Variable,4.6,-,N/A,,Clear,0,2013-01-23 18:53:00
2:53 PM,-0.0,-11.9,57,30.18,10.0,Variable,5.8,-,N/A,,Clear,0,2013-01-23 19:53:00
3:53 PM,1.0,-11.0,57,30.18,10.0,ESE,4.6,-,N/A,,Clear,120,2013-01-23 20:53:00
4:53 PM,-0.9,-11.0,62,30.18,10.0,Calm,Calm,-,N/A,,Clear,0,2013-01-23 21:53:00
5:53 PM,-2.9,-11.0,68,30.20,10.0,WSW,3.5,-,N/A,,Clear,250,2013-01-23 22:53:00
6:53 PM,-6.0,-11.0,79,30.21,10.0,Calm,Calm,-,N/A,,Clear,0,2013-01-23 23:53:00
7:53 PM,-8.0,-14.1,75,30.21,10.0,Calm,Calm,-,N/A,,Clear,0,2013-01-24 00:53:00
8:53 PM,-9.0,-17.0,68,30.21,10.0,Calm,Calm,-,N/A,,Clear,0,2013-01-24 01:53:00
9:53 PM,-9.9,-16.1,74,30.21,10.0,Calm,Calm,-,N/A,,Clear,0,2013-01-24 02:53:00
10:53 PM,-9.9,-18.0,68,30.21,10.0,WNW,4.6,-,N/A,,Clear,290,2013-01-24 03:53:00
11:53 PM,-11.9,-17.0,78,30.21,10.0,Calm,Calm,-,N/A,,Clear,0,2013-01-24 04:53:00